Александретта

Турция     36˚37′01″N   36˚07′58″E
темп.,
°C
ветер,
м/с
пор.,
м/с
влажн.,
%
обл.,
%
осадки,
мм/ч
давл.,
гПа
погр.,
м
5 декабря, сб
сб500:00+11˚вюв235951 0.0 102061
03:00+10˚вюв226175 0.0 101861
06:00+9˚вюв2362100 0.0 101864
09:00+11˚юв3358100 0.0 1018113
12:00+14˚вюв4547100 0.0 1017739
15:00+15˚вюв344791 0.0 1015814
18:00+12˚юв225767 0.0 101647
21:00+11˚юв125934 0.0 101736
6 декабря, вс
вс600:00+10˚юв12620 0.0 101733
03:00+9˚ююв11640 0.0 101728
06:00+9˚ю11670 0.0 101726
09:00+11˚ю11640 0.0 101745
12:00+15˚з02440 0.0 1017720
15:00+16˚сз23430 0.0 1015943
18:00+11˚зсз12650 0.0 101633
21:00+11˚сз12650 0.0 101747
7 декабря, пн
пн700:00+10˚сз11770 0.0 101846
03:00+9˚вюв00840 0.0 101832
06:00+9˚вюв11840 0.0 101828
09:00+10˚вюв12670 0.0 101982
12:00+14˚юв22570 0.0 1019441
15:00+15˚вюв22584 0.0 1018763
18:00+12˚в12730 0.0 101941
21:00+12˚в227116 0.0 102050
8 декабря, вт
вт800:00+12˚вюв227338 0.0 102054
03:00+10˚вюв237732 0.0 102062
06:00+11˚вюв347279 0.0 1019118
09:00+12˚вюв466963 0.0 1020435
12:00+15˚вюв57565 0.0 1019800
15:00+15˚вюв575428 0.0 1018933
18:00+12˚вюв346117 0.0 1018123
21:00+12˚в355857 0.0 1019177
9 декабря, ср
ср900:00+12˚вюв346285 0.1 1019191
03:00+9˚вюв337583 0.2 102099
06:00+9˚вюв237856 0.0 1020100
09:00+10˚вюв237267 0.0 1022203
12:00+14˚юв335516 0.0 1022643
15:00+15˚юв22528 0.0 1020782
18:00+11˚ююв12640 0.0 102137
21:00+10˚ююв11680 0.0 102228